Weather observations for the past three days for
Syracuse, Syracuse Hancock International Airport
Imperial (Metric)
Date Time (edt) Wind (mph) Vis. (mi.) Weather Sky Cond. Temperature (ºF) Relative Humidity Wind Chill (°F) Heat Index (°F) Pressure Precipitation (in)
Air Dwpt 6 hour altimeter (in) sea level (mb) 1 hr 3 hr 6 hr
Max. Min.
15 23:54 Calm 10.00 Partly Cloudy FEW200 SCT260 55 48 77% 30.19 1021.7
15 22:54 Calm 10.00 Partly Cloudy SCT200 SCT250 60.1 48.9 67% 30.18 1021.7
15 21:54 NW 3 10.00 Partly Cloudy FEW060 SCT200 SCT250 60.1 48 65% 30.18 1021.5
15 20:54 NW 6 10.00 Partly Cloudy FEW050 SCT200 SCT250 63 48 58% 30.16 1020.7
15 19:54 NW 8 10.00 A Few Clouds FEW050 FEW200 66.9 46.9 75.9 66.9 49% 30.14 1020.3
15 18:54 NW 13 10.00 A Few Clouds FEW050 69.1 48 47% 30.14 1020.1
15 17:54 N 15 10.00 Partly Cloudy SCT047 71.1 48 44% 30.12 1019.6
15 16:54 NW 10 G 18 10.00 Partly Cloudy SCT050 SCT200 72 48.9 44% 30.12 1019.6
15 15:54 NW 15 G 23 10.00 Partly Cloudy SCT049 SCT200 73 48.9 43% 30.13 1019.7
15 14:54 NW 18 G 29 10.00 Partly Cloudy SCT048 SCT070 73 51.1 46% 30.12 1019.4
15 13:54 W 16 G 21 10.00 Partly Cloudy SCT055 SCT070 75 50 77 66 42% 78 30.1 1018.8
15 12:54 NW 15 10.00 Partly Cloudy SCT055 SCT075 73.9 48.9 41% 30.1 1018.9
15 11:54 N 9 10.00 Mostly Cloudy FEW049 BKN075 75 51.1 43% 78 30.1 1018.8
15 10:54 W 5 10.00 Mostly Cloudy SCT050 BKN065 71.1 50 47% 30.09 1018.4
15 09:54 N 6 10.00 Partly Cloudy SCT045 71.1 52 51% 30.08 1017.9
15 08:54 NW 6 10.00 A Few Clouds FEW050 FEW080 69.1 54 59% 30.08 1018.0
15 07:54 NW 5 10.00 A Few Clouds FEW085 66 54 66 57 65% 30.07 1017.7
15 06:54 W 3 10.00 Partly Cloudy FEW060 SCT085 63 55 76% 30.07 1017.6
15 05:54 NW 5 10.00 Partly Cloudy FEW060 SCT070 57.9 53.1 84% 30.05 1017.0
15 04:54 Calm 10.00 Partly Cloudy FEW060 SCT075 59 53.1 81% 30.02 1015.9
15 03:54 E 3 10.00 Mostly Cloudy SCT060 BKN075 61 54 78% 30 1015.3
15 02:54 NW 5 10.00 Mostly Cloudy SCT050 BKN070 63 55 76% 29.99 1015.0
15 01:54 NW 3 10.00 Mostly Cloudy FEW047 SCT060 BKN095 62.1 54 72 62.1 75% 29.98 1014.7
15 00:54 Calm 10.00 Mostly Cloudy FEW046 BKN085 63 55 76% 29.98 1014.6
14 23:54 Calm 10.00 Partly Cloudy SCT055 62.1 54 75% 29.97 1014.1
14 22:54 Calm 10.00 A Few Clouds FEW065 64 53.1 68% 29.95 1013.6
14 21:54 NW 8 10.00 A Few Clouds FEW065 FEW200 66 54 65% 29.94 1013.4
14 20:54 NW 10 10.00 Partly Cloudy FEW060 SCT200 68 54 61% 29.93 1013.0
14 19:54 NW 10 10.00 A Few Clouds FEW060 FEW200 72 53.1 79 72 52% 29.92 1012.5
14 18:54 NW 13 10.00 A Few Clouds FEW070 FEW200 75 52 45% 78 29.9 1011.9
14 17:54 NW 10 10.00 Partly Cloudy FEW050 FEW075 SCT200 77 50 39% 78 29.88 1011.2
14 16:54 NW 13 10.00 Partly Cloudy FEW050 SCT150 78.1 50 37% 79 29.88 1011.1
14 15:54 W 12 10.00 Partly Cloudy FEW045 FEW150 SCT250 79 51.1 38% 79 29.89 1011.4
14 14:54 W 14 G 21 10.00 Partly Cloudy FEW040 FEW160 SCT240 79 54 42% 79 29.89 1011.4
14 13:54 W 10 10.00 Partly Cloudy FEW040 FEW180 SCT240 79 52 79 71.1 39% 79 29.88 1011.3
14 12:54 W 12 10.00 A Few Clouds FEW040 FEW100 FEW160 79 53.1 41% 79 29.9 1011.7
14 11:54 W 8 G 18 10.00 A Few Clouds FEW090 FEW150 FEW220 78.1 57 48% 79 29.89 1011.5
14 10:54 NW 8 10.00 A Few Clouds FEW090 FEW150 FEW250 77 55.9 48% 79 29.89 1011.4
14 09:54 W 10 G 20 10.00 Partly Cloudy FEW080 FEW140 SCT180 SCT250 77 55.9 48% 79 29.88 1011.3
14 08:54 W 12 G 20 10.00 Partly Cloudy FEW080 FEW140 SCT180 SCT250 75 59 58% 77 29.87 1010.9
14 07:54 W 6 10.00 Mostly Cloudy FEW035 BKN130 BKN180 BKN250 71.1 61 77 66 71% 29.86 1010.6
14 06:54 W 7 10.00 Mostly Cloudy SCT033 BKN075 BKN150 71.1 62.1 73% 29.84 1009.8
14 05:54 W 9 10.00 Mostly Cloudy SCT046 SCT080 BKN160 69.1 62.1 78% 29.81 1008.9
14 04:54 SE 3 10.00 Mostly Cloudy SCT065 SCT110 BKN160 BKN220 68 62.1 81% 29.78 1007.7
14 03:54 E 5 10.00 Mostly Cloudy SCT065 SCT095 BKN120 BKN160 69.1 61 76% 29.78 1007.9
14 02:54 E 6 10.00 Mostly Cloudy SCT065 SCT095 BKN120 BKN160 72 61 68% 29.79 1008.0
14 01:54 W 6 10.00 Mostly Cloudy SCT080 BKN090 BKN100 77 57.9 84 75 52% 79 29.78 1007.8 0.01
14 00:54 S 14 8.00 Thunderstorm Light Rain SCT070CB BKN090 OVC110 75 60.1 60% 77 29.78 1007.6 0.01
13 23:54 S 8 10.00 Partly Cloudy SCT085 SCT150 79 55.9 45% 80 29.79 1008.1
13 22:54 S 13 G 22 10.00 Partly Cloudy FEW085 SCT150 80.1 55.9 44% 80 29.81 1008.7
13 21:54 S 10 10.00 Partly Cloudy SCT090 SCT140 81 57 44% 81 29.82 1009.1
13 20:54 S 10 10.00 Partly Cloudy FEW075 SCT100 SCT250 82 55.9 41% 82 29.8 1008.4
13 19:54 S 9 10.00 Partly Cloudy FEW090 FEW150 SCT250 84 55.9 89.1 84 38% 83 29.81 1009.0
13 18:54 S 12 10.00 Mostly Cloudy SCT090 SCT150 SCT200 BKN250 86 57.9 39% 85 29.82 1009.2
13 17:54 S 13 G 20 10.00 Mostly Cloudy FEW080 SCT100 SCT140 BKN200 88 60.1 39% 88 29.82 1009.4
13 16:54 SW 8 10.00 Mostly Cloudy SCT070 BKN110 BKN200 86 57.9 39% 85 29.86 1010.6
13 15:54 SW 10 G 26 10.00 Mostly Cloudy FEW070 SCT090 BKN180 BKN250 88 57.9 36% 87 29.86 1010.6
13 14:54 SW 17 G 24 10.00 Mostly Cloudy FEW050 SCT100 BKN180 BKN250 87.1 57.9 37% 86 29.86 1010.7
13 13:54 SW 15 G 23 10.00 Mostly Cloudy FEW080 BKN180 BKN250 87.1 57 88 63 36% 86 29.88 1011.2
13 12:54 SW 16 G 23 10.00 Mostly Cloudy FEW050 FEW100 BKN180 BKN250 86 55.9 36% 85 29.9 1011.9
13 11:54 SW 16 G 22 10.00 Mostly Cloudy SCT050 SCT110 BKN250 84 55 37% 83 29.91 1012.2
13 10:54 SW 8 10.00 Mostly Cloudy SCT110 SCT220 BKN250 81 57 44% 81 29.92 1012.6
13 09:54 S 10 10.00 Mostly Cloudy SCT110 SCT220 BKN250 79 57 47% 80 29.93 1012.9
13 08:54 E 5 10.00 Mostly Cloudy FEW110 SCT220 BKN250 71.1 57.9 63% 29.95 1013.8
13 07:54 E 6 10.00 Mostly Cloudy FEW110 SCT220 BKN250 63 55 63 53.1 76% 29.96 1014.1
13 06:54 E 6 10.00 Mostly Cloudy FEW110 FEW220 BKN250 57.9 53.1 84% 29.96 1014.1
13 05:54 E 6 10.00 Mostly Cloudy FEW180 FEW200 BKN250 54 51.1 90% 29.95 1013.9
13 04:54 E 5 10.00 Partly Cloudy FEW180 SCT250 54 50 87% 29.96 1014.0
13 03:54 E 5 10.00 Mostly Cloudy FEW200 BKN250 54 50 87% 29.96 1014.1
13 02:54 E 5 10.00 Mostly Cloudy FEW200 BKN250 55.9 51.1 84% 29.96 1014.2
13 01:54 E 7 10.00 Partly Cloudy FEW200 SCT250 55 51.1 71.1 55 87% 29.96 1014.3
13 00:54 E 5 10.00 A Few Clouds FEW250 55.9 51.1 84% 29.98 1014.7
Date Time (edt) Wind (mph) Vis. (mi.) Weather Sky Cond. Air Dwpt Max. Min. Relative Humidity Wind Chill (°F) Heat Index (°F) altimeter (in) sea level (mb) 1 hr 3 hr 6 hr
6 hour
Temperature (ºF) Pressure Precipitation (in)